STARLINK-11507, 62519

Orbit data source: Space-Track

STARLINK-11507, 62519 is a payload satellite owned by SpaceX/Seattle (US) in LEO that was launched on Wed, 08 Jan 2025 UTC via an FALCON 9 launch vehicle from the Air Force Eastern Test Range (AFETR). Payload-class satellites include a variety of spacecraft equipped with specific instruments for various scientific and technological missions. These include communications satellites like Starlink; space stations such as the ISS; scientific satellites like the Hubble; Earth observation satellites from companies like Planet Labs, Umbra, and HawkEye 360; GPS; miniature CubeSats for education and research; and military/defense satellites.

Loading next visibility...
Identifier
62519, 2025-004J
Orbit
LEO
Country
Flag of USUS
Related business
Manufacturer
SpaceX/Seattle
Mission
Operational Commercial Communications
Bus & Motor
STARLINK V2MD, Unknown motor
Mass
960 kg wet, ~910 kg dry
Launch date (UTC)
2025-01-08 (1 year ago)
Launch vehicle
FALCON 9
Launch site
Air Force Eastern Test Range (AFETR)
Object type
Payload
Rocket body
Debris
Shape & HBR
Box + 2 Pan, 18.1 m
Radar Cross Section
36.964 m², Large (>1 m²)

Expand to show TLE details & history
Last TLE update: 11 hours ago

TLE from 11 hours ago
0 STARLINK-11507
1 62519U 25004J   26095.18153279  .00244562  00000-0  18512-2 0  9994
2 62519  42.9992 271.1652 0000420  73.7476 286.3437 15.70874030 71370
Epoch: 2026-04-05T04:21Z
TLE epoch observation values (Epoch: 2026-04-05T04:21:24.433Z)
Latitude
-0.00006°
Longitude
12.3227°
Altitude
356.089 km
Speed
7.697 km/s
True Right ascension
18h 04m 39s
True Declination
0° 00' 00"
Sunlit
Object was in daylight at epoch
Visualization orbit readout
Latitude
Unknown
Longitude
Unknown
Altitude
Unknown
Speed
Unknown
Apparent Right ascension
Unknown
Apparent Declination
Unknown
Sunlit
N/A
Visualization observer readout
Local Sidereal Time
21:11:52
Azimuth
Unknown
Elevation
Unknown
Doppler factor
Unknown
Orbital elements
Apogee altitude
358.662 km
Perigee altitude
358.097 km
Semi-major axis
6,736.517 km
Eccentricity
0.00004
Inclination
42.9992°
RAAN
271.1652°
Arg. of periapsis
73.7476°
True anomaly
286.33908°
Mean anomaly
286.3437°
Eccentric anomaly
286.34139°
Mean motion
3.92546 °/min
Orbital period
91.71 mins
BSTAR
0.0018512
Loading maneuver chart data...
Computing Atmospheric mass density...
Loading historical data...
Loading historical data...
Loading historical data...
Loading historical data...
Loading historical data...
Loading historical data...
Loading historical data...

Documentation

Showing up to 5 results
|